Tracking 19709 objects as of 18-Jun-2019
HD Live streaming from Space Station
objects crossing your sky now

COSMOS 1823 DEB

Track COSMOS 1823 DEB now!
10-day predictions


NORAD ID: 19006
Int'l Code: 1987-020BB
Perigee: 1,018.5 km
Apogee: 1,072.7 km
Inclination: 73.4 °
Period: 105.9 minutes
Semi major axis: 7416 km
RCS: 0.0433 m2 (small)
Launch date: February 20, 1987
Source: Commonwealth of Independent States (former USSR) (CIS)
Launch site: PLESETSK MISSILE AND SPACE COMPLEX (PKMTR)

Note: This is SATELLITE DEBRIS
aabbcc
Your satellite tracking list
Your tracking list is empty




NASA's NSSDC Master Catalog

Two Line Element Set (TLE):
1 19006U 87020BB  19168.22056883  .00004387  00000-0  59593-2 0  9997
2 19006  73.4429 107.6255 0036541 128.3032 349.6962 13.59239534493291
Source of the keplerian elements: AFSPC